Location: Poughquag
(41.6090°N, 73.6820°W)
Time: 02:07:43
(UTC-04:00)

Altair - Pass Details

Date: 07 June 2020
Orbit: 1501 x 1683 km, 47.2° (Epoch: 06 July)

Event Time Altitude Azimuth Distance (km) Brightness Sun altitude
Rises 23:53:30 0° 276° (W) 4,851 10.4 -24.1°
Reaches altitude 10° 23:56:39 10° 279° (W) 3,886 9.9 -24.3°
Maximum altitude 00:06:36 64° 1° (N) 1,827 8.0 -24.7°
Drops below altitude 10° 00:16:43 10° 82° (E) 3,946 9.6 -25.0°
Sets 00:19:57 0° 86° (E) 4,930 10.1 -25.1°
